Wind_Speed
46 44 41 40 39 39 39 40 42 44 46 47 48 49 50 50 51 51 52 51 51 51 50 50 49 49 49 49 49 49 49 50 51 51 51 51 52 52 52 52 52 52 51 51 51 51 51 51 51 51 51 51 52 51 50 48 46 45 44 43 42 40 37 36 38 42 43 39 41 49 57 57 52 49 53 58 58 56 55 54 55 53 51 48 47
42 39 37 37 37 38 39 41 43 45 47 49 50 51 52 52 52 52 52 52 52 51 51 51 50 50 50 50 51 51 51 52 53 53 53 53 54 54 54 54 53 53 53 53 54 54 53 53 53 53 53 52 53 53 53 52 49 47 45 44 43 42 39 38 38 40 42 40 41 50 57 59 58 55 55 59 60 58 56 55 55 54 52 50 48
41 39 38 39 40 41 43 45 47 48 49 50 51 52 52 53 53 52 52 52 52 52 52 52 52 52 52 52 52 53 53 54 54 54 55 55 55 55 55 55 55 55 55 55 56 56 56 56 55 55 55 55 55 55 55 54 53 52 49 46 45 44 42 40 40 40 42 41 42 51 58 60 61 59 58 60 61 60 56 54 55 54 52 50 48
44 44 44 45 46 47 49 51 52 52 52 52 53 53 53 53 53 52 52 52 53 53 53 53 53 53 53 54 54 54 55 56 56 56 56 57 57 57 57 57 57 57 57 57 58 58 58 59 59 58 58 58 57 57 56 56 55 54 53 50 48 47 45 42 41 41 41 41 43 51 59 61 62 62 61 61 62 63 60 56 55 55 54 52 50
47 47 48 48 49 50 52 53 53 53 53 54 54 54 53 54 54 54 54 54 54 54 54 54 55 55 55 56 56 56 57 57 57 58 58 58 58 58 59 59 59 59 59 60 60 61 61 61 61 61 60 60 59 58 57 56 56 55 55 54 52 50 49 46 44 43 43 43 44 51 59 63 64 67 67 64 63 63 61 59 57 56 55 53 53
47 47 47 47 48 50 51 51 51 51 52 52 53 53 53 54 55 56 57 57 56 56 56 57 57 57 57 57 58 58 58 58 59 59 59 59 59 60 60 61 61 61 61 62 63 63 63 62 62 62 62 61 60 59 58 57 57 56 56 56 55 54 53 52 48 45 45 45 45 50 58 63 65 70 71 68 65 64 62 60 57 55 55 53 53
47 47 48 48 49 50 51 52 52 52 53 53 53 53 54 55 56 57 58 58 58 58 58 58 58 58 58 58 58 58 59 59 59 60 60 60 61 62 62 62 63 63 64 65 65 64 63 63 63 63 62 62 61 61 60 58 58 58 57 56 56 56 56 56 53 49 47 47 47 49 56 62 64 68 71 69 69 69 66 62 58 56 56 55 54
50 51 51 51 52 53 54 55 56 57 57 57 56 55 55 56 57 57 58 58 58 58 58 59 58 58 58 58 58 58 59 60 61 61 62 62 63 63 64 64 65 66 66 66 65 65 65 65 64 64 63 63 63 62 61 60 59 60 59 57 57 57 58 58 57 54 51 50 50 49 54 62 64 65 67 69 71 72 69 64 59 58 58 58 57
56 56 56 56 56 57 57 58 59 60 60 59 58 58 58 58 58 58 57 57 58 58 58 58 58 58 58 59 59 59 60 61 62 63 64 64 64 65 65 66 67 67 67 67 67 67 67 67 66 66 65 65 65 64 63 62 61 61 61 60 59 58 58 58 58 57 54 52 53 52 53 60 67 66 64 65 68 69 67 63 57 56 58 58 57
60 60 59 59 59 59 59 59 60 60 60 59 59 58 58 59 59 59 59 59 59 59 59 58 58 59 59 59 60 61 62 63 63 64 65 65 66 66 67 68 68 69 69 70 71 70 70 69 69 68 68 67 67 65 64 63 62 61 61 62 61 60 59 58 59 59 57 55 55 56 54 57 67 70 66 64 65 65 64 61 56 54 54 56 55
62 61 60 60 60 60 60 60 60 60 60 59 58 58 58 59 60 60 60 61 61 61 61 60 60 60 60 61 62 63 63 64 65 65 66 66 67 68 68 69 70 71 72 73 73 74 73 73 72 72 71 70 69 68 66 65 64 62 61 61 62 62 61 60 59 59 59 57 57 59 57 57 63 69 70 68 67 66 64 60 58 56 53 52 55
61 60 60 60 60 60 60 60 60 59 59 58 58 58 59 59 60 60 61 61 62 62 62 62 63 63 63 64 64 65 65 65 66 66 67 67 68 69 70 71 73 74 74 75 75 76 77 77 76 75 73 72 71 70 68 67 65 64 62 61 61 62 62 62 62 60 60 59 60 60 60 59 60 64 69 71 70 70 68 62 60 61 58 54 56
60 60 61 61 61 60 60 60 59 59 59 59 59 59 59 60 60 60 60 60 61 62 62 63 63 64 64 65 65 66 66 66 67 67 68 69 70 71 72 74 75 75 76 77 77 78 79 79 78 77 75 74 72 71 69 68 67 66 64 62 61 62 62 63 63 63 61 59 60 62 63 62 61 61 66 72 73 72 72 68 64 65 64 59 58
59 60 61 61 61 60 60 61 61 61 61 61 60 59 58 58 57 58 58 58 59 60 60 61 62 63 64 65 65 66 67 67 68 69 70 71 72 74 75 75 76 77 77 78 79 80 80 80 79 77 76 74 73 72 71 71 70 70 68 66 63 62 62 62 63 64 64 61 60 63 65 64 62 62 65 72 76 76 75 72 68 68 68 64 60
59 60 60 60 59 59 59 61 62 63 64 62 60 58 57 56 56 57 57 57 58 58 59 60 60 61 63 64 65 67 68 69 70 71 72 73 74 75 76 77 78 79 79 80 80 80 79 78 77 76 75 75 74 74 73 73 73 73 72 70 67 64 62 62 63 64 65 64 62 63 66 66 64 64 66 69 74 79 79 76 72 71 72 71 65
59 59 59 59 58 58 59 61 63 65 65 62 60 58 57 56 57 58 58 59 59 59 59 60 61 62 63 63 65 66 67 68 70 71 72 74 75 76 77 79 80 80 81 81 80 79 78 77 76 76 76 76 76 75 74 72 71 72 72 72 70 67 63 62 62 63 64 65 64 63 66 68 67 66 68 69 71 77 81 80 77 74 74 75 73
59 59 59 59 59 58 59 61 64 65 65 63 62 61 60 60 60 61 61 61 60 60 61 62 62 63 63 64 65 65 66 68 70 72 73 75 77 78 80 81 82 82 81 80 79 78 78 77 77 76 76 74 73 72 70 68 66 66 67 69 69 68 65 62 61 62 64 65 65 65 66 68 68 68 69 69 71 76 80 81 81 80 77 77 77
60 60 60 59 59 59 60 62 63 64 65 64 64 64 63 63 63 64 64 63 63 63 64 64 64 65 65 65 66 67 68 70 72 74 75 77 79 81 82 83 82 82 81 80 80 81 80 79 77 75 72 69 67 66 65 64 63 61 62 64 65 66 64 62 60 61 63 65 65 66 67 68 69 69 70 70 72 77 81 81 81 82 80 79 78
60 59 58 59 59 59 60 61 62 64 64 65 65 65 65 65 66 66 66 66 65 66 66 66 66 66 66 67 67 69 70 72 74 76 78 80 81 82 82 82 82 81 82 83 84 84 82 79 76 72 69 66 63 62 61 61 60 59 58 59 62 63 62 61 60 59 62 65 65 65 66 68 69 70 71 72 73 76 80 82 82 81 80 80 80
59 58 57 58 59 60 60 61 62 63 64 64 65 65 66 66 67 68 68 67 67 67 67 67 67 67 67 68 69 70 72 74 76 78 80 81 82 82 82 81 82 83 85 86 85 83 80 78 75 72 69 65 62 59 58 57 56 55 55 55 58 60 60 59 59 58 59 63 65 65 65 68 70 71 71 73 74 75 78 82 84 83 80 80 81
57 57 57 58 59 61 61 61 61 62 63 64 64 65 66 66 68 69 69 68 68 68 68 67 67 67 68 69 71 73 74 76 78 79 80 81 81 81 81 82 84 85 85 84 82 80 78 76 73 71 68 65 61 57 54 53 52 51 51 51 52 55 57 57 57 57 58 61 64 66 66 66 69 70 71 74 76 75 76 80 85 87 84 82 81
56 57 58 59 60 61 60 60 61 62 62 63 64 65 66 67 69 69 69 68 68 68 68 67 67 68 70 71 73 75 76 77 78 79 79 80 80 81 83 84 85 84 82 80 78 76 75 73 71 69 65 62 59 56 53 50 49 48 49 47 47 50 52 54 55 56 57 59 62 65 66 66 67 70 72 75 77 76 76 78 83 89 89 86 82
57 58 59 60 60 59 60 60 61 62 63 64 65 66 67 68 68 68 68 68 67 67 67 67 68 70 72 74 75 76 77 78 78 79 79 80 81 83 84 83 82 80 78 76 75 73 71 69 67 65 62 59 57 54 52 49 46 46 47 45 44 45 47 49 52 54 55 57 60 63 65 66 68 71 73 76 78 78 78 78 80 86 91 91 87
58 58 58 58 58 59 59 60 61 62 63 64 65 66 67 67 67 67 67 66 66 66 67 68 70 72 74 75 76 76 77 78 78 79 80 81 83 83 82 80 78 76 74 72 70 68 66 65 63 61 58 56 54 51 48 45 42 41 42 43 41 41 43 44 48 51 52 54 57 61 64 66 69 72 74 76 78 79 79 79 79 82 89 94 93
56 57 57 58 59 59 60 61 62 63 64 65 65 66 66 66 66 65 65 65 65 66 68 70 72 73 74 75 76 76 77 77 78 80 81 82 82 81 79 77 74 72 70 68 65 63 61 60 59 57 54 51 49 47 44 41 38 36 36 37 37 38 39 41 44 47 49 51 54 59 63 66 69 72 74 76 79 80 80 80 81 82 85 91 96
56 56 57 58 59 60 61 62 63 63 64 65 65 65 65 64 64 63 63 64 65 67 69 71 73 74 75 75 76 76 77 79 80 81 82 81 79 77 75 73 70 68 65 62 60 59 57 56 54 52 50 47 44 43 41 39 37 36 34 33 32 34 36 38 40 44 47 49 52 56 61 65 69 72 74 76 77 79 80 81 84 85 85 87 92
56 57 58 59 60 61 62 63 64 64 65 65 64 63 63 62 61 62 63 64 66 69 70 72 73 74 74 75 76 77 79 80 81 81 80 78 75 73 71 69 66 63 60 58 57 56 55 54 53 50 48 44 40 38 36 34 33 32 32 31 29 30 33 35 38 41 44 47 50 53 57 63 68 70 73 75 76 78 80 82 84 87 87 85 87
58 59 60 61 62 63 64 64 64 64 63 62 61 60 59 59 60 62 64 66 68 69 70 71 72 73 74 76 77 79 80 81 80 78 76 74 72 69 66 64 61 59 57 55 55 55 54 53 51 49 47 43 39 35 33 31 30 28 28 28 28 28 30 33 36 39 42 44 48 51 54 60 65 68 70 73 76 78 81 84 86 88 88 87 86
60 61 62 63 64 64 63 62 61 60 59 58 57 57 58 59 61 64 66 67 68 69 70 70 72 73 75 77 78 79 79 78 77 75 73 70 67 64 62 59 57 55 54 54 53 53 53 52 50 48 46 44 40 37 34 31 30 27 25 25 25 26 27 30 33 36 39 42 46 49 52 56 61 66 70 73 76 79 81 84 87 88 88 87 87
61 61 62 61 60 58 57 56 55 55 54 55 55 57 59 61 63 64 66 67 67 68 69 71 73 75 77 78 78 78 77 75 73 71 68 65 62 60 57 55 53 52 51 51 51 52 51 50 49 47 46 44 42 39 36 32 30 28 26 24 23 24 25 27 30 33 37 40 43 47 50 52 56 62 68 72 75 79 81 84 86 88 88 87 87
58 56 54 53 51 51 51 51 51 52 53 55 57 59 61 62 63 64 64 65 66 68 70 73 75 76 77 77 77 75 74 71 69 66 62 60 57 55 53 51 50 49 49 49 49 50 49 49 48 47 45 44 41 39 37 34 31 28 26 24 22 22 23 25 27 30 34 38 42 45 48 50 54 59 65 70 74 78 81 83 85 86 88 88 87
51 49 48 47 47 48 49 50 51 53 55 57 58 59 60 61 61 62 63 65 67 70 72 74 75 76 75 75 73 72 69 66 63 61 58 56 53 51 49 48 47 47 47 47 48 48 48 48 47 46 45 43 41 38 36 34 32 29 26 24 22 21 22 23 25 28 32 36 39 43 46 49 53 57 62 67 72 76 79 81 83 85 86 87 88
46 46 46 46 47 48 50 51 53 54 56 57 57 58 59 60 61 63 65 67 69 71 73 74 74 73 72 71 69 66 63 60 58 56 54 51 49 48 47 46 45 45 45 45 45 46 46 46 46 45 44 43 40 37 35 33 31 29 27 24 22 21 21 22 24 26 29 33 36 40 44 47 51 56 59 64 69 74 77 79 81 83 84 86 87
44 45 46 47 48 49 51 52 53 54 55 55 56 57 59 61 63 65 67 69 71 71 72 72 71 70 69 66 63 60 58 56 54 52 49 48 47 46 45 44 43 43 43 43 44 44 44 45 45 44 44 43 41 38 34 31 30 29 27 24 22 21 20 21 23 25 27 30 34 38 42 46 50 53 57 62 66 69 73 75 77 78 81 83 85
43 45 46 48 49 50 51 52 52 53 54 55 56 59 61 63 65 67 69 70 70 70 70 69 68 66 64 61 58 56 53 51 49 47 46 45 45 44 42 41 41 41 41 42 42 43 43 43 43 43 42 42 41 39 36 32 29 28 26 24 22 20 20 20 21 23 25 28 31 35 39 43 47 51 55 59 63 65 67 70 72 73 76 80 83
45 46 48 49 49 49 50 51 51 53 54 56 58 61 63 66 68 69 69 69 69 68 67 66 63 61 58 56 54 52 49 47 45 44 44 43 42 41 40 39 39 40 40 41 41 42 42 42 41 41 41 40 39 38 36 34 30 28 27 25 23 21 19 19 20 22 24 26 29 33 37 40 44 48 52 55 59 61 63 66 68 70 72 75 79
47 47 47 47 47 48 49 51 52 54 56 58 61 63 66 67 68 69 68 68 67 66 64 61 59 56 54 52 50 48 46 44 44 43 42 41 39 38 37 37 38 38 38 39 40 40 40 40 40 40 39 38 38 37 35 34 31 29 27 25 24 23 20 19 19 20 22 25 27 30 34 37 41 45 49 52 55 58 61 63 65 68 70 72 73
46 46 46 46 47 49 50 52 54 56 58 61 63 65 66 67 67 67 67 66 64 62 59 57 55 53 51 48 46 45 44 43 42 41 40 38 37 36 36 36 36 36 37 38 38 38 39 39 39 39 38 38 37 36 35 33 32 30 27 25 24 23 22 20 20 20 21 23 25 28 31 34 38 42 45 49 52 55 58 61 63 65 68 70 70
45 45 45 47 48 50 52 54 56 59 61 63 64 65 65 66 66 65 64 62 60 58 56 54 51 49 47 45 44 43 42 41 40 38 37 36 35 35 35 35 35 35 35 36 37 37 37 37 38 38 38 37 36 35 34 33 32 30 29 26 24 23 22 21 21 20 20 21 23 26 28 31 35 38 41 45 48 51 54 57 60 63 65 67 68
45 46 47 48 50 52 54 56 59 61 63 64 64 64 64 64 63 62 60 58 56 54 52 50 48 46 44 43 42 41 39 38 36 35 34 34 34 34 34 34 33 34 34 35 35 35 35 36 36 36 37 36 36 35 33 33 31 30 30 28 27 25 23 22 21 21 21 21 22 24 26 29 32 34 38 40 44 47 50 52 55 58 61 63 65
46 47 49 50 52 54 57 59 60 62 63 63 63 63 63 62 60 59 57 55 53 51 49 46 45 44 42 41 39 37 36 35 34 33 33 33 33 33 33 32 32 33 33 33 34 34 34 34 35 35 36 36 35 35 34 32 31 30 29 29 28 27 25 23 22 21 21 21 22 22 24 26 29 31 34 37 39 42 45 48 51 53 56 59 61
48 49 51 53 55 57 58 60 61 62 62 62 62 62 61 59 57 55 53 51 49 47 45 44 43 42 40 38 36 35 34 33 32 32 32 32 32 32 31 31 31 31 32 32 32 33 33 33 34 34 35 35 35 35 34 33 31 30 29 28 28 27 27 26 25 23 21 21 21 22 23 24 26 28 31 33 36 39 41 43 46 49 51 54 56
50 52 54 56 57 58 59 60 61 61 61 61 61 59 58 56 54 52 50 48 46 45 44 42 41 39 37 35 34 33 32 32 32 32 32 32 31 31 31 30 31 31 31 31 32 32 32 33 33 33 34 34 35 35 34 33 32 31 29 28 27 27 27 27 27 26 25 23 22 22 22 23 25 26 28 30 33 35 38 40 42 44 47 49 51
53 54 56 57 58 59 60 60 60 60 60 60 59 57 55 53 51 49 47 45 44 43 42 40 38 36 35 34 33 32 32 32 32 32 32 31 31 31 31 31 31 31 32 32 33 33 32 33 33 34 34 34 34 34 34 34 33 32 30 29 28 27 26 26 27 27 27 26 25 25 24 24 24 25 26 28 30 32 34 36 39 41 43 45 47
55 56 57 58 59 60 60 60 60 59 59 57 56 54 52 50 48 45 44 44 43 41 39 37 35 34 33 33 32 32 32 32 32 32 31 31 31 31 31 32 32 33 33 33 34 34 34 33 33 34 34 34 34 34 34 34 34 33 31 30 28 27 26 26 26 26 26 27 27 27 26 26 26 26 26 27 28 30 31 33 35 37 39 42 44
56 57 58 59 60 60 60 59 59 58 56 54 53 52 50 47 45 44 43 41 40 38 36 35 34 33 33 32 32 32 32 32 32 31 31 30 30 31 32 33 34 34 34 35 35 35 35 35 34 34 34 35 35 35 35 35 34 33 32 31 30 28 27 26 25 26 26 26 27 27 27 28 28 28 28 29 29 29 30 32 33 35 37 39 40
57 58 59 59 60 60 59 59 57 56 54 52 50 48 46 45 44 42 41 39 36 35 33 33 32 32 32 32 32 32 33 32 32 31 31 31 31 31 32 34 35 35 36 36 36 36 36 36 35 35 35 35 35 35 36 36 36 35 34 32 31 30 28 27 26 26 26 26 26 27 27 28 28 29 30 30 31 31 31 32 33 34 35 36 38
59 59 60 59 59 59 58 57 55 54 52 50 47 45 43 43 42 40 38 36 34 32 31 31 30 30 31 31 32 32 32 32 32 32 32 32 33 33 34 35 35 36 36 36 37 37 37 37 36 36 36 36 36 36 36 36 36 37 36 35 33 31 29 28 27 27 26 26 26 26 27 27 28 29 30 31 31 32 33 34 34 35 35 36 37
60 60 59 59 58 57 56 54 53 52 50 47 44 43 42 40 39 37 35 33 31 31 30 30 30 30 30 30 31 30 30 31 31 32 33 34 35 36 36 37 37 37 37 37 37 38 38 38 38 37 37 37 37 37 37 37 37 37 36 36 35 33 31 30 28 28 27 27 27 27 27 28 28 29 30 31 31 32 33 34 35 36 36 37 38
60 59 59 57 56 55 53 52 51 49 46 44 42 41 40 38 36 34 32 31 30 30 30 30 30 30 30 30 30 30 30 31 31 32 33 34 35 36 37 38 39 39 39 38 38 38 39 39 40 40 39 39 39 39 39 39 39 38 37 36 35 34 33 32 31 29 29 28 28 28 28 29 29 30 30 31 32 32 33 34 35 36 37 38 38
59 58 57 56 54 53 51 50 48 45 43 42 41 39 37 35 34 32 31 30 30 30 30 30 30 30 30 30 31 31 32 32 33 34 34 35 36 37 37 38 38 39 40 40 40 40 40 40 40 41 41 41 41 41 41 41 41 41 39 37 35 34 33 33 32 31 31 30 30 29 29 30 30 31 31 32 33 33 34 34 35 36 37 38 38
Wind_Direction
275 276 277 278 279 280 281 283 284 284 284 283 283 283 283 284 284 285 285 286 286 285 285 285 285 286 286 286 286 286 286 286 286 286 286 286 287 287 287 288 288 289 289 289 290 289 289 289 289 289 289 289 289 290 290 288 285 281 277 275 274 274 271 268 266 264 262 257 245 233 229 229 231 235 239 241 242 243 244 242 242 245 247 248 249
270 273 276 277 278 279 281 283 284 284 284 282 282 282 283 283 284 285 285 285 285 285 285 285 286 286 286 286 286 287 286 286 286 287 287 287 287 287 288 288 289 289 290 290 290 291 291 290 290 289 288 288 288 288 288 288 286 283 278 273 272 272 271 268 266 263 262 258 244 231 228 228 229 232 236 240 242 244 246 245 244 245 246 246 247
266 270 274 276 277 279 281 282 283 284 284 283 282 282 282 283 283 284 284 284 285 285 285 286 286 286 286 286 286 286 286 286 286 287 287 287 288 288 288 289 289 290 290 291 291 291 291 291 290 289 289 288 287 286 285 285 284 282 279 274 270 269 270 269 267 263 260 258 245 230 227 228 229 232 236 239 240 242 244 246 244 244 245 244 243
267 270 273 276 278 279 281 282 283 283 283 283 283 283 282 282 282 282 283 283 283 284 284 285 285 285 285 285 285 285 286 286 287 287 287 288 288 289 289 290 290 291 291 292 292 292 292 291 291 290 289 288 287 285 284 282 281 279 278 275 271 267 267 267 267 264 259 257 246 233 228 228 228 231 234 236 238 240 243 245 244 243 243 242 240
273 274 275 277 278 279 280 281 282 283 283 283 283 283 282 282 281 281 281 281 282 282 283 284 284 284 284 285 285 286 286 287 287 287 287 288 289 289 290 290 291 292 292 292 292 292 292 292 291 291 289 288 287 285 283 281 278 276 274 273 271 268 266 265 265 263 259 255 248 235 230 229 229 231 233 235 238 241 241 243 245 244 243 242 238
275 276 277 278 279 279 280 281 282 283 283 284 284 283 282 281 280 280 280 280 281 282 283 283 284 284 285 285 286 286 286 286 287 287 288 288 289 289 290 291 292 292 292 292 292 293 293 292 292 292 291 290 288 286 284 281 278 275 272 270 269 267 265 263 263 262 258 254 249 238 231 230 231 233 234 235 238 240 240 240 242 243 242 242 240
274 276 277 278 279 280 281 282 283 284 285 286 286 285 284 282 281 281 281 281 282 282 283 283 284 285 285 285 286 286 286 286 287 287 288 288 289 290 291 291 292 292 292 292 292 292 292 292 292 292 292 291 289 287 285 282 279 276 272 268 266 265 263 262 261 260 257 253 250 243 232 228 231 235 236 236 237 239 239 239 239 239 240 240 241
273 276 277 278 279 280 281 282 283 284 285 286 286 285 285 284 284 284 284 283 283 283 284 284 284 285 285 285 285 286 286 286 287 287 288 289 290 290 291 291 291 291 292 292 292 293 293 293 292 292 292 291 289 288 285 283 281 278 275 271 266 263 262 261 260 258 256 252 249 245 236 229 229 233 236 237 237 238 239 240 239 239 240 240 240
272 275 277 278 279 280 280 281 282 283 284 285 285 285 285 285 286 286 286 285 285 285 284 285 284 284 285 285 285 286 286 287 288 289 290 290 291 291 291 291 292 292 293 293 293 293 293 293 293 292 292 291 289 287 284 282 281 279 276 273 269 265 261 259 258 256 254 250 247 245 240 232 228 230 233 236 238 239 239 239 240 241 243 244 242
271 273 275 276 278 279 279 281 282 283 284 285 286 286 286 287 287 287 287 286 286 285 285 285 285 285 285 285 286 286 287 288 289 290 291 291 291 291 292 292 292 293 293 293 294 294 294 294 294 293 293 292 290 288 285 282 280 278 276 273 270 267 263 259 257 255 253 249 245 244 242 235 230 229 229 232 237 239 237 235 236 235 238 242 241
270 273 274 275 277 278 279 281 282 284 285 286 287 287 288 288 288 288 287 287 286 286 286 285 285 286 286 286 287 288 289 289 290 290 291 291 291 292 292 292 293 293 294 294 295 295 295 295 295 294 294 293 291 289 286 283 281 277 274 271 269 267 265 261 257 254 251 248 245 242 241 238 234 231 229 229 233 237 236 233 230 229 231 236 236
270 272 274 275 276 278 280 282 283 285 286 287 288 289 289 289 289 289 288 288 288 287 286 286 286 287 287 288 288 289 289 290 290 290 290 291 291 291 292 292 293 294 294 295 295 296 296 296 295 295 294 293 291 290 287 285 282 278 274 270 267 265 263 262 259 255 251 247 244 241 240 238 236 233 230 228 230 234 234 231 227 226 229 236 236
270 272 274 275 277 279 281 283 284 285 286 287 288 290 290 290 290 290 289 289 288 288 288 288 288 288 289 289 289 289 289 289 290 290 290 290 291 291 292 293 293 294 295 295 296 296 296 296 296 295 294 293 291 289 287 285 283 280 276 271 267 264 261 260 259 257 253 247 243 241 239 237 236 234 230 227 227 231 234 231 227 225 228 235 237
271 272 274 276 278 281 283 284 285 286 287 288 289 290 291 292 292 291 290 290 289 290 290 290 290 290 290 290 290 290 289 289 289 289 290 290 291 292 293 294 294 295 295 295 295 295 295 295 295 294 293 292 290 288 286 284 282 280 278 274 269 265 261 259 257 255 253 249 243 240 238 237 235 234 231 227 226 228 231 231 228 225 226 231 235
271 272 274 276 279 281 283 285 286 286 287 288 290 291 292 293 292 291 291 291 292 292 293 293 293 293 292 292 291 290 290 289 289 290 290 291 292 293 294 295 295 295 295 295 295 295 295 294 294 293 291 290 288 287 285 283 282 280 278 275 271 267 262 258 256 254 252 250 245 239 237 237 235 233 232 230 227 225 227 229 228 225 225 227 232
271 272 273 276 278 280 283 285 285 286 287 289 291 291 292 292 291 291 292 293 293 294 294 295 294 294 293 293 292 291 291 291 291 292 293 294 294 295 295 295 296 295 296 296 296 295 295 294 293 292 291 289 288 286 284 282 280 278 277 275 272 269 264 259 255 253 251 249 246 241 237 235 234 232 232 232 231 226 225 227 228 226 225 227 230
271 272 273 275 277 280 282 283 285 286 288 290 291 291 292 292 292 292 293 293 294 294 295 295 295 294 294 293 293 293 294 294 294 295 296 296 296 296 296 296 297 297 297 297 297 296 295 294 293 292 291 290 289 287 285 283 280 277 275 273 271 269 265 260 255 252 250 248 246 242 238 235 233 232 231 231 231 229 225 226 228 229 227 228 229
271 271 273 275 277 279 281 283 284 286 287 289 290 291 292 292 293 293 294 294 295 295 295 295 295 295 295 295 295 296 296 296 297 297 297 297 297 297 297 298 298 299 299 299 299 298 297 297 296 294 293 292 290 289 287 285 282 278 275 272 270 268 265 261 256 251 248 247 245 242 239 236 233 232 231 230 230 229 226 225 227 230 230 230 230
270 271 273 275 277 279 281 283 284 285 286 287 289 290 291 292 293 294 295 296 297 297 297 296 296 296 296 297 297 297 297 297 297 297 297 297 298 298 299 299 300 301 301 301 301 300 300 299 298 297 296 294 293 291 289 286 283 279 275 272 269 267 264 261 257 252 247 246 244 241 239 237 234 232 231 230 229 229 227 225 225 227 229 230 231
271 272 273 275 276 279 281 282 283 284 285 286 288 289 291 292 292 293 295 296 297 297 297 296 296 296 297 296 297 296 296 297 297 297 298 298 299 299 300 301 302 302 302 302 302 302 301 301 300 300 299 297 296 293 291 287 284 280 276 272 268 266 263 260 257 252 247 244 243 241 238 236 235 233 231 230 230 229 228 226 225 225 226 228 230
272 273 274 275 277 279 281 282 282 283 284 286 287 288 289 290 291 293 295 296 296 296 296 296 296 296 296 296 296 296 296 297 298 298 299 299 300 301 302 302 303 303 303 303 302 302 302 302 302 301 301 300 298 296 293 290 286 282 277 272 268 264 262 259 256 252 247 243 241 240 238 235 234 233 232 231 230 230 228 227 225 224 225 227 228
270 273 275 276 278 279 280 281 282 283 284 285 286 287 288 290 291 293 294 294 294 294 294 295 295 295 295 295 296 296 297 298 299 299 300 300 301 302 302 303 303 303 303 303 303 303 303 302 302 302 302 302 301 300 297 293 289 285 280 275 269 264 261 258 255 251 246 242 240 239 238 235 233 233 232 231 231 230 229 227 225 224 224 225 227
271 273 275 277 278 279 280 280 281 282 283 284 286 287 289 290 292 293 293 293 293 293 293 294 294 294 295 296 296 297 298 299 299 300 300 301 302 303 303 303 304 303 303 303 303 303 303 303 303 303 303 304 303 301 298 295 290 285 281 277 271 265 261 257 254 251 247 242 239 238 237 234 232 231 230 230 231 230 229 228 227 225 224 225 226
271 273 275 276 277 278 279 280 281 282 283 285 286 288 289 291 291 292 291 291 292 292 292 293 293 294 295 296 297 298 299 299 299 300 301 302 303 304 304 304 304 304 304 304 303 303 303 303 303 304 304 303 302 300 297 293 289 283 279 276 272 267 261 256 253 251 248 243 239 236 235 234 232 231 230 229 230 230 230 229 228 227 225 224 225
271 273 274 275 277 278 279 280 281 282 284 286 287 288 289 290 290 290 290 290 291 291 292 293 294 295 296 297 298 298 298 299 300 301 303 303 304 304 304 304 304 304 304 304 304 304 303 303 303 303 303 303 303 303 301 297 292 285 280 276 272 267 262 256 252 249 247 243 239 235 234 233 232 231 230 229 229 230 230 229 228 228 227 225 224
272 273 275 276 277 278 280 281 282 284 285 287 287 287 288 288 288 289 289 289 290 291 292 294 295 296 297 297 297 298 299 300 302 303 304 304 304 304 304 304 304 304 304 304 304 304 304 304 304 305 306 308 309 308 305 302 297 292 286 280 273 266 261 256 251 248 245 242 239 235 232 232 232 231 230 230 229 229 230 230 229 229 228 227 225
273 274 276 277 278 279 280 282 283 284 285 285 285 286 286 287 287 288 289 290 291 292 294 295 295 296 296 297 298 299 301 302 303 304 304 305 305 305 304 305 305 305 306 306 306 306 307 308 309 310 310 311 310 308 305 301 297 292 288 282 275 266 260 255 250 247 244 242 239 236 232 231 232 232 231 231 230 229 229 230 230 230 230 229 227
274 276 277 278 279 279 280 281 282 282 283 283 284 285 285 286 287 288 289 290 292 293 294 295 295 296 296 297 299 301 302 303 304 304 305 305 305 305 305 305 306 307 308 309 310 310 311 311 313 313 313 314 314 312 310 307 302 296 290 284 277 268 261 255 251 247 244 242 240 238 234 231 231 232 231 231 230 230 229 229 230 231 231 230 229
275 276 277 277 278 278 278 279 280 281 282 282 283 284 285 286 287 289 290 291 292 293 294 294 295 296 297 299 301 302 303 304 304 304 305 305 305 305 306 307 309 310 311 312 312 312 313 314 316 317 318 319 320 319 317 314 310 304 296 288 280 271 263 256 252 248 245 242 240 239 236 233 231 231 231 231 230 230 230 230 230 231 232 231 230
276 276 277 276 276 277 277 278 279 280 281 282 283 284 285 287 288 289 291 292 292 293 293 294 296 297 299 301 302 303 303 304 304 304 304 305 305 306 307 309 310 311 311 312 313 314 315 317 319 320 322 323 323 322 320 318 314 309 303 294 284 275 265 257 252 248 245 242 240 239 238 236 233 231 231 231 231 231 231 231 231 232 232 232 231
275 275 275 275 275 276 277 278 279 280 282 283 284 285 287 288 289 290 290 291 292 293 295 296 298 299 301 302 302 303 303 303 304 304 304 305 306 306 308 309 310 311 312 313 314 316 318 319 321 323 323 324 324 323 321 319 317 313 307 299 289 279 269 260 252 247 244 242 240 239 238 236 234 232 232 232 232 233 232 232 232 233 233 233 232
273 273 273 274 275 277 278 279 280 281 283 284 285 286 287 288 289 290 290 292 293 294 296 298 299 300 301 302 302 303 303 304 304 304 304 305 306 307 308 309 311 313 314 315 316 318 320 321 322 323 324 324 325 325 323 320 318 315 310 304 294 284 273 264 255 248 244 242 241 240 239 237 235 234 233 233 234 234 235 234 234 234 234 234 233
272 273 274 275 277 278 279 280 282 283 284 285 285 286 287 288 289 291 292 293 294 296 298 299 300 301 301 302 302 302 303 303 303 304 304 305 306 307 309 310 313 314 315 316 318 319 321 322 323 323 324 325 325 325 324 322 319 316 312 307 299 288 278 268 260 252 246 242 240 239 238 238 237 236 235 235 235 235 236 237 236 235 235 235 234
273 274 276 277 278 279 281 282 282 283 284 285 286 287 288 290 291 292 294 295 297 298 299 300 301 301 301 302 302 302 303 303 303 304 305 306 306 308 310 312 314 315 316 317 319 320 321 323 324 325 325 325 325 325 325 324 320 316 313 308 302 292 282 273 264 257 250 244 241 239 238 237 238 238 238 238 238 238 238 239 240 238 237 236 236
275 276 277 278 279 280 281 282 282 283 285 286 288 289 290 292 293 295 296 297 298 299 300 301 301 301 301 302 302 303 303 303 303 304 304 305 307 309 311 313 314 316 317 319 320 321 322 324 325 326 326 326 326 326 326 325 323 319 314 310 305 296 287 277 268 261 255 249 244 241 239 238 238 238 239 240 241 242 242 242 243 242 240 238 237
275 276 277 278 279 280 281 283 284 286 287 289 290 292 293 295 296 297 298 299 300 300 301 301 301 302 302 302 303 303 303 303 303 303 304 305 307 309 312 314 316 317 319 319 320 322 323 324 325 326 327 327 326 326 326 326 325 322 318 313 308 301 291 281 273 265 259 253 248 245 242 241 240 239 239 240 242 244 244 245 245 245 243 241 239
275 276 278 279 281 282 284 286 287 288 290 292 293 295 296 297 298 298 299 300 301 301 302 302 302 302 303 303 303 303 303 303 303 303 304 305 308 310 313 315 317 318 318 319 320 322 324 325 327 327 328 328 327 327 327 326 325 324 321 316 311 306 298 288 278 270 262 257 252 248 245 244 243 242 241 241 242 243 244 245 246 246 246 246 244
278 279 280 282 284 285 286 288 289 291 293 294 295 296 297 298 298 299 300 301 302 302 302 303 303 303 303 303 303 303 303 303 303 303 305 307 310 313 315 317 318 318 318 319 321 323 325 327 328 328 329 329 328 328 327 326 325 324 322 319 314 309 304 297 287 278 269 262 257 252 249 247 245 244 244 243 243 243 243 244 244 245 246 247 246
280 281 282 284 286 287 288 290 292 293 295 296 296 297 297 298 299 300 301 302 302 302 303 303 303 303 303 303 303 303 303 303 304 305 307 310 312 314 315 316 317 318 319 320 323 325 326 327 328 329 329 330 330 329 328 327 326 324 322 320 317 312 307 302 295 286 277 269 263 258 255 252 249 248 247 246 246 246 246 246 246 246 246 246 247
282 283 285 286 287 288 290 292 294 295 295 296 296 297 298 299 301 301 302 302 302 303 303 303 303 303 303 303 303 303 303 304 305 307 309 311 313 314 315 316 317 318 320 322 324 325 327 328 329 330 330 331 331 331 330 329 327 326 323 321 319 316 311 306 301 294 286 278 271 264 260 257 255 253 251 250 249 249 248 248 248 248 248 248 248
283 285 286 287 288 290 292 293 294 295 295 296 297 298 300 301 302 302 302 302 302 302 303 303 303 303 303 303 303 304 304 305 307 309 310 312 313 313 314 315 317 319 321 322 324 325 327 328 329 330 331 332 332 332 332 330 328 326 324 321 319 317 314 311 305 300 294 287 280 274 268 263 260 258 256 255 254 253 252 251 250 250 250 250 250
284 285 286 288 290 292 293 294 295 295 296 297 299 300 301 302 302 302 302 302 302 302 302 303 303 303 304 305 305 306 306 307 308 309 311 311 311 312 313 315 317 319 320 321 323 324 326 328 329 330 331 332 333 333 332 331 329 327 325 323 320 317 315 313 310 305 300 294 288 282 277 272 267 263 261 259 258 257 256 255 254 253 252 252 252
284 286 288 290 291 293 294 294 295 296 298 299 300 301 302 302 302 302 302 302 302 302 302 303 303 304 305 306 307 307 307 307 308 309 310 311 311 311 313 315 317 318 319 320 322 323 325 326 328 329 331 332 333 333 333 332 331 329 327 324 322 319 316 314 312 310 306 302 296 291 286 281 277 273 269 265 262 261 259 259 258 257 256 255 254
285 287 289 291 292 293 294 295 296 298 299 300 301 301 302 302 302 302 302 302 302 302 303 303 304 306 307 307 307 306 306 307 308 309 310 311 311 312 313 315 317 318 319 320 321 322 324 326 327 328 330 331 332 333 333 333 332 330 328 325 323 320 317 314 312 310 308 305 303 299 294 289 285 280 277 273 270 267 265 263 262 261 260 259 258
286 288 290 292 293 294 295 296 297 299 300 300 301 301 302 302 302 302 302 302 302 303 304 305 306 307 307 307 306 306 306 307 308 309 310 310 311 313 314 315 317 318 319 320 320 321 323 325 326 327 328 330 331 332 333 333 332 331 329 326 323 320 318 314 311 308 306 304 303 301 299 296 293 288 284 280 277 274 271 269 267 266 264 263 262
288 289 291 292 293 294 296 297 298 299 300 300 301 301 301 301 301 301 302 302 303 304 305 306 307 307 307 306 305 305 306 307 308 309 309 309 310 312 313 314 315 316 317 318 319 320 322 324 325 327 327 329 330 331 332 332 332 331 329 327 324 321 319 315 312 309 306 304 302 300 299 298 296 294 291 288 285 281 278 275 273 271 269 268 266
288 290 291 292 294 295 297 298 298 299 300 300 300 301 301 301 301 301 302 302 303 305 306 307 307 306 305 305 305 305 306 307 307 308 308 308 308 310 311 312 313 314 316 317 319 320 321 322 324 326 326 327 328 330 331 331 331 331 329 328 325 322 319 316 313 310 307 304 302 300 298 297 296 294 293 292 290 288 285 282 279 277 274 272 271
288 290 291 293 294 296 297 298 298 299 299 300 300 299 299 300 301 301 302 303 304 305 305 305 305 304 303 303 303 304 305 306 306 307 307 307 308 309 310 311 312 313 315 317 318 319 320 321 323 324 326 326 327 328 329 330 331 330 329 328 326 323 320 317 314 312 309 306 303 300 298 297 295 294 293 292 291 289 288 287 285 283 281 279 276
288 290 291 293 294 296 296 297 298 298 299 299 298 298 299 299 300 301 302 303 304 305 304 304 303 303 302 302 302 303 303 303 303 304 305 306 308 309 309 310 311 313 314 316 317 318 319 320 321 323 324 325 325 326 327 328 329 329 329 327 326 323 321 318 315 312 310 307 305 302 300 298 296 294 293 292 291 290 289 288 287 286 285 284 282
288 290 292 293 294 295 296 296 297 297 297 297 297 298 298 299 299 300 302 303 304 304 303 303 303 302 302 301 300 300 300 300 301 302 303 304 305 306 307 309 311 312 313 314 315 317 317 318 320 321 322 323 324 324 325 326 327 328 327 326 325 323 321 319 317 314 311 309 306 304 302 300 298 297 295 294 292 291 290 289 288 287 286 285 284
289 290 292 293 294 294 295 295 295 295 295 296 296 297 298 298 299 300 302 303 303 302 302 302 302 301 300 300 299 299 299 300 301 302 302 303 303 304 305 307 309 310 312 313 314 315 316 317 318 319 321 321 322 323 324 325 326 326 326 325 324 323 321 319 317 315 313 311 309 306 304 302 301 299 298 297 296 294 293 291 290 289 288 287 286
Height
10657 10657 10658 10659 10659 10659 10659 10659 10659 10658 10658 10657 10656 10656 10655 10654 10654 10653 10651 10651 10650 10649 10648 10647 10646 10645 10644 10643 10642 10641 10640 10638 10637 10635 10634 10632 10631 10629 10628 10626 10625 10623 10622 10620 10619 10618 10617 10616 10615 10614 10612 10611 10609 10608 10608 10608 10608 10607 10607 10607 10607 10607 10608 10609 10608 10605 10605 10608 10610 10611 10614 10617 10619 10619 10621 10622 10624 10626 10629 10632 10633 10635 10638 10640 10642
10653 10653 10654 10654 10655 10655 10655 10655 10654 10653 10652 10652 10651 10651 10650 10650 10649 10648 10647 10645 10644 10644 10642 10641 10640 10640 10638 10637 10636 10635 10633 10632 10630 10629 10627 10626 10624 10622 10621 10619 10618 10616 10614 10613 10612 10611 10610 10609 10608 10607 10605 10604 10603 10602 10600 10600 10600 10600 10600 10600 10600 10600 10601 10601 10601 10600 10599 10600 10603 10604 10607 10610 10612 10612 10613 10615 10616 10619 10622 10625 10626 10629 10631 10634 10636
10649 10650 10650 10650 10650 10651 10651 10650 10649 10648 10647 10647 10647 10646 10646 10645 10644 10643 10641 10640 10639 10638 10637 10636 10635 10634 10632 10631 10630 10628 10627 10625 10623 10622 10620 10618 10617 10615 10614 10612 10611 10609 10607 10606 10604 10603 10602 10601 10600 10599 10598 10596 10595 10594 10593 10592 10592 10591 10591 10593 10593 10592 10593 10594 10594 10594 10593 10593 10595 10597 10600 10603 10605 10605 10606 10607 10609 10612 10615 10618 10620 10622 10624 10628 10630
10645 10646 10646 10646 10646 10646 10645 10644 10643 10643 10642 10642 10641 10641 10640 10639 10638 10637 10636 10635 10634 10633 10632 10631 10629 10628 10626 10625 10623 10621 10620 10618 10616 10615 10613 10611 10609 10608 10606 10604 10603 10601 10600 10599 10597 10595 10594 10593 10592 10591 10589 10588 10587 10586 10586 10585 10584 10583 10582 10583 10585 10585 10585 10586 10586 10587 10587 10587 10588 10590 10593 10595 10597 10598 10598 10599 10601 10604 10608 10610 10612 10615 10617 10621 10623
10639 10640 10640 10640 10640 10640 10639 10638 10638 10638 10637 10636 10636 10635 10634 10633 10632 10631 10630 10629 10628 10627 10626 10625 10623 10621 10620 10618 10616 10614 10612 10611 10609 10607 10605 10604 10602 10600 10598 10596 10595 10594 10592 10590 10589 10587 10586 10584 10583 10581 10580 10579 10578 10577 10576 10576 10575 10574 10574 10574 10575 10576 10576 10577 10578 10579 10580 10580 10580 10583 10585 10587 10589 10589 10589 10592 10595 10597 10600 10602 10604 10607 10610 10613 10616
10634 10635 10635 10635 10635 10634 10633 10633 10633 10632 10631 10631 10631 10630 10629 10627 10626 10625 10624 10623 10622 10621 10620 10618 10617 10615 10613 10611 10609 10607 10605 10603 10602 10600 10598 10596 10594 10592 10591 10589 10587 10586 10584 10582 10581 10579 10577 10576 10574 10572 10570 10569 10568 10567 10566 10566 10565 10565 10565 10565 10565 10566 10567 10567 10569 10571 10572 10572 10573 10575 10577 10579 10581 10581 10582 10586 10588 10589 10592 10594 10597 10600 10603 10605 10608
10629 10630 10630 10630 10629 10629 10628 10628 10628 10627 10626 10626 10625 10624 10623 10621 10619 10618 10617 10616 10615 10614 10613 10611 10610 10608 10606 10604 10602 10600 10598 10596 10594 10593 10591 10589 10587 10585 10583 10581 10579 10578 10576 10574 10572 10571 10569 10567 10566 10563 10561 10559 10558 10556 10556 10555 10554 10554 10554 10556 10556 10556 10557 10557 10559 10562 10563 10564 10565 10567 10569 10572 10573 10573 10575 10578 10581 10581 10584 10587 10590 10592 10595 10598 10601
10624 10625 10625 10625 10624 10623 10623 10623 10622 10621 10621 10621 10620 10618 10617 10615 10613 10612 10611 10610 10608 10607 10605 10604 10603 10601 10599 10597 10595 10593 10590 10588 10587 10585 10584 10582 10580 10578 10575 10573 10571 10569 10567 10566 10564 10562 10560 10558 10557 10555 10552 10551 10549 10547 10546 10545 10544 10543 10542 10544 10545 10546 10546 10547 10549 10552 10554 10555 10556 10558 10560 10563 10565 10566 10567 10570 10572 10573 10575 10579 10583 10585 10587 10590 10593
10620 10620 10620 10619 10618 10618 10618 10617 10616 10616 10615 10614 10613 10612 10610 10608 10607 10605 10604 10603 10601 10600 10598 10597 10595 10593 10592 10590 10588 10586 10583 10581 10579 10577 10575 10573 10572 10570 10567 10565 10562 10560 10558 10556 10554 10553 10551 10548 10547 10545 10543 10541 10538 10537 10536 10535 10535 10533 10531 10531 10533 10535 10536 10537 10538 10540 10543 10546 10547 10548 10550 10554 10556 10557 10560 10562 10562 10564 10568 10573 10577 10579 10580 10583 10586
10615 10615 10614 10614 10613 10612 10612 10611 10610 10609 10609 10608 10607 10605 10604 10602 10600 10599 10597 10596 10594 10593 10591 10590 10588 10586 10584 10582 10580 10578 10576 10574 10572 10569 10567 10565 10563 10561 10558 10556 10553 10551 10548 10545 10543 10541 10539 10537 10536 10534 10532 10530 10527 10526 10524 10524 10524 10523 10522 10521 10521 10522 10524 10526 10527 10529 10532 10535 10537 10537 10541 10544 10545 10547 10551 10554 10555 10556 10560 10565 10570 10572 10573 10576 10579
10609 10609 10609 10608 10607 10607 10606 10605 10604 10603 10602 10601 10600 10599 10597 10596 10594 10592 10591 10589 10587 10586 10584 10582 10580 10578 10577 10575 10573 10571 10569 10566 10564 10562 10559 10557 10554 10552 10549 10546 10544 10541 10538 10536 10532 10529 10527 10525 10524 10522 10520 10518 10516 10514 10512 10511 10511 10511 10512 10511 10510 10510 10511 10513 10515 10517 10520 10523 10525 10527 10530 10532 10533 10537 10542 10545 10547 10548 10552 10557 10562 10565 10567 10569 10571
10604 10603 10603 10602 10601 10601 10600 10599 10598 10597 10596 10595 10594 10593 10591 10589 10588 10586 10584 10582 10580 10578 10576 10574 10573 10571 10569 10567 10565 10563 10561 10558 10556 10553 10551 10548 10545 10543 10540 10537 10534 10531 10528 10525 10522 10519 10516 10513 10511 10510 10508 10506 10504 10502 10500 10498 10497 10497 10498 10499 10499 10500 10500 10501 10502 10504 10507 10512 10514 10515 10518 10520 10523 10527 10532 10536 10538 10540 10543 10548 10554 10557 10560 10562 10563
10599 10598 10596 10595 10595 10595 10594 10593 10592 10590 10589 10589 10588 10587 10585 10583 10581 10579 10577 10575 10573 10571 10569 10567 10565 10563 10561 10559 10557 10555 10553 10550 10547 10545 10542 10539 10536 10533 10531 10527 10524 10521 10518 10515 10512 10509 10505 10502 10499 10497 10495 10494 10492 10490 10488 10486 10484 10483 10484 10485 10487 10488 10489 10490 10491 10491 10494 10499 10502 10504 10506 10508 10512 10517 10521 10525 10529 10532 10534 10538 10544 10548 10552 10555 10556
10594 10592 10590 10590 10590 10589 10588 10586 10585 10584 10583 10583 10582 10581 10579 10577 10575 10572 10570 10568 10566 10564 10562 10560 10558 10556 10553 10551 10549 10546 10544 10541 10538 10536 10533 10530 10527 10524 10521 10518 10514 10511 10508 10505 10502 10498 10495 10492 10489 10486 10483 10481 10479 10478 10476 10474 10472 10470 10469 10470 10472 10474 10476 10478 10479 10479 10481 10485 10490 10492 10493 10496 10502 10506 10509 10512 10517 10521 10524 10528 10533 10538 10542 10545 10547
10588 10586 10585 10585 10585 10584 10582 10580 10579 10577 10577 10576 10576 10575 10573 10571 10568 10566 10563 10562 10559 10557 10555 10553 10550 10548 10545 10543 10540 10538 10535 10532 10529 10526 10523 10520 10517 10514 10511 10507 10504 10500 10497 10494 10491 10488 10485 10481 10478 10475 10472 10469 10467 10465 10464 10462 10460 10457 10455 10454 10456 10458 10461 10464 10466 10468 10469 10471 10476 10480 10481 10485 10491 10495 10496 10499 10504 10508 10513 10518 10523 10528 10532 10535 10537
10581 10580 10580 10580 10579 10579 10577 10575 10573 10571 10570 10570 10569 10568 10566 10564 10562 10559 10557 10555 10553 10551 10548 10546 10543 10540 10538 10535 10532 10529 10526 10523 10520 10517 10514 10510 10507 10503 10500 10496 10493 10489 10485 10482 10479 10476 10473 10470 10466 10463 10460 10457 10454 10450 10449 10449 10447 10445 10441 10439 10439 10441 10445 10449 10452 10455 10457 10458 10462 10467 10470 10473 10478 10483 10485 10489 10493 10497 10502 10508 10512 10516 10521 10524 10528
10575 10575 10574 10574 10574 10573 10572 10570 10567 10565 10564 10563 10562 10560 10559 10557 10555 10553 10551 10549 10546 10544 10541 10538 10535 10532 10530 10527 10524 10521 10518 10514 10511 10507 10504 10500 10496 10492 10489 10484 10481 10477 10473 10469 10466 10462 10459 10456 10453 10450 10447 10444 10441 10437 10434 10433 10433 10431 10429 10426 10425 10426 10429 10433 10438 10442 10444 10446 10449 10453 10457 10461 10466 10471 10475 10479 10483 10487 10492 10498 10501 10505 10510 10515 10518
10569 10569 10569 10569 10568 10568 10566 10564 10562 10560 10558 10556 10555 10553 10551 10550 10548 10546 10544 10541 10539 10537 10534 10531 10527 10524 10521 10518 10515 10512 10509 10505 10502 10498 10494 10490 10486 10482 10478 10473 10469 10464 10460 10456 10452 10448 10444 10441 10438 10436 10433 10430 10428 10424 10421 10418 10417 10417 10415 10413 10411 10412 10414 10418 10422 10427 10431 10433 10436 10440 10444 10448 10454 10459 10463 10467 10471 10474 10480 10486 10490 10494 10500 10505 10508
10563 10564 10564 10563 10563 10562 10560 10559 10557 10554 10552 10550 10548 10546 10544 10542 10540 10538 10536 10534 10531 10529 10526 10523 10519 10516 10513 10510 10507 10504 10500 10497 10493 10489 10485 10481 10476 10472 10467 10462 10458 10453 10448 10443 10438 10433 10429 10426 10422 10420 10418 10416 10415 10412 10409 10406 10403 10402 10402 10400 10399 10399 10401 10403 10407 10413 10417 10419 10423 10427 10432 10436 10442 10447 10451 10455 10459 10463 10467 10474 10479 10485 10490 10494 10497
10557 10559 10558 10557 10557 10555 10554 10552 10550 10548 10545 10543 10542 10540 10537 10535 10533 10531 10528 10526 10524 10521 10518 10515 10512 10509 10506 10503 10500 10496 10493 10489 10485 10480 10476 10471 10466 10462 10457 10452 10448 10442 10437 10432 10426 10421 10416 10412 10409 10406 10403 10402 10401 10399 10396 10393 10391 10389 10388 10387 10386 10386 10388 10390 10394 10398 10403 10406 10409 10415 10420 10424 10429 10434 10440 10444 10448 10452 10456 10462 10469 10475 10480 10483 10486
10552 10552 10551 10551 10550 10549 10547 10545 10543 10541 10539 10537 10535 10533 10531 10529 10526 10524 10521 10519 10516 10513 10510 10507 10504 10501 10498 10495 10492 10488 10485 10481 10476 10472 10467 10462 10457 10452 10447 10443 10438 10433 10427 10421 10416 10411 10406 10401 10397 10394 10391 10389 10387 10386 10384 10381 10379 10377 10376 10375 10374 10374 10376 10378 10381 10385 10389 10393 10397 10401 10407 10412 10418 10423 10429 10433 10436 10441 10446 10451 10457 10464 10469 10473 10476
10546 10545 10545 10544 10543 10542 10540 10538 10537 10535 10533 10531 10528 10526 10524 10522 10519 10517 10514 10512 10509 10506 10503 10499 10496 10493 10490 10487 10484 10480 10476 10472 10468 10463 10458 10454 10449 10444 10439 10434 10428 10423 10418 10412 10406 10401 10396 10392 10388 10384 10381 10378 10376 10374 10372 10369 10368 10366 10364 10364 10363 10363 10364 10366 10368 10372 10376 10380 10385 10389 10394 10401 10408 10413 10417 10421 10424 10430 10435 10440 10445 10451 10457 10462 10467
10540 10539 10538 10537 10536 10535 10533 10531 10529 10528 10526 10524 10522 10519 10517 10515 10512 10510 10507 10504 10501 10498 10495 10492 10489 10485 10482 10479 10475 10472 10468 10463 10459 10454 10450 10445 10440 10435 10430 10424 10419 10414 10409 10404 10398 10393 10388 10383 10379 10376 10373 10370 10367 10364 10361 10359 10358 10356 10354 10353 10353 10353 10354 10356 10357 10360 10363 10368 10374 10378 10383 10389 10395 10399 10404 10409 10413 10418 10424 10429 10434 10440 10446 10451 10457
10534 10533 10532 10531 10529 10528 10526 10524 10522 10520 10519 10517 10515 10512 10510 10508 10505 10503 10500 10497 10494 10491 10488 10484 10481 10477 10474 10471 10467 10463 10459 10455 10450 10446 10441 10436 10431 10426 10420 10415 10410 10406 10401 10396 10391 10386 10381 10376 10372 10368 10365 10363 10359 10356 10353 10351 10349 10347 10344 10344 10344 10344 10345 10346 10347 10349 10353 10358 10363 10368 10372 10378 10382 10386 10392 10397 10401 10406 10412 10418 10423 10428 10433 10438 10444
10528 10527 10525 10524 10522 10521 10519 10517 10515 10513 10512 10510 10508 10505 10503 10501 10498 10495 10493 10490 10487 10484 10480 10477 10473 10470 10466 10462 10459 10455 10450 10446 10442 10437 10433 10428 10423 10417 10412 10406 10402 10397 10393 10388 10383 10378 10374 10370 10366 10362 10359 10356 10352 10347 10344 10342 10340 10338 10337 10336 10336 10336 10336 10337 10338 10340 10343 10348 10352 10357 10362 10367 10371 10375 10380 10385 10389 10394 10400 10406 10411 10415 10419 10425 10431
10521 10520 10518 10517 10515 10513 10512 10510 10508 10506 10505 10503 10501 10498 10496 10494 10491 10488 10486 10483 10480 10477 10473 10469 10466 10462 10458 10454 10450 10446 10442 10438 10433 10428 10423 10419 10414 10409 10403 10398 10394 10390 10385 10381 10376 10372 10367 10363 10359 10355 10352 10349 10345 10341 10337 10334 10332 10330 10329 10329 10329 10328 10328 10329 10330 10332 10334 10338 10342 10346 10352 10356 10359 10364 10369 10374 10379 10385 10389 10394 10398 10402 10406 10413 10419
10514 10512 10511 10509 10508 10506 10504 10503 10501 10500 10498 10496 10494 10491 10489 10487 10484 10481 10479 10476 10473 10469 10466 10462 10458 10454 10450 10446 10442 10438 10433 10429 10424 10419 10414 10409 10405 10400 10395 10390 10386 10382 10378 10373 10368 10364 10359 10355 10351 10348 10345 10342 10339 10336 10332 10329 10326 10324 10323 10322 10322 10322 10321 10321 10323 10324 10326 10329 10333 10337 10342 10346 10349 10354 10359 10364 10370 10375 10380 10384 10387 10390 10395 10402 10408
10507 10505 10503 10502 10500 10499 10497 10496 10494 10493 10491 10489 10487 10485 10482 10480 10477 10474 10472 10469 10466 10462 10459 10454 10450 10446 10442 10438 10434 10430 10425 10420 10415 10410 10406 10401 10396 10392 10387 10383 10378 10374 10369 10365 10360 10356 10352 10348 10344 10341 10337 10335 10332 10329 10326 10323 10321 10319 10317 10316 10316 10316 10315 10315 10316 10317 10320 10322 10325 10328 10333 10337 10341 10345 10350 10355 10359 10364 10369 10373 10375 10378 10383 10391 10397
10499 10498 10496 10495 10493 10492 10490 10489 10487 10486 10484 10482 10480 10478 10476 10473 10471 10468 10465 10462 10459 10455 10451 10447 10443 10439 10434 10430 10426 10421 10416 10411 10407 10402 10398 10393 10388 10384 10380 10375 10371 10367 10363 10358 10354 10349 10345 10342 10338 10334 10330 10327 10324 10322 10320 10317 10315 10313 10312 10311 10310 10310 10310 10310 10310 10312 10313 10316 10318 10321 10325 10329 10332 10336 10340 10344 10349 10353 10357 10360 10363 10367 10373 10380 10387
10492 10491 10489 10487 10486 10485 10483 10482 10480 10479 10477 10476 10474 10472 10469 10466 10464 10461 10458 10455 10451 10447 10444 10440 10435 10431 10427 10422 10417 10413 10408 10404 10399 10395 10391 10386 10382 10378 10374 10370 10366 10362 10358 10354 10349 10344 10340 10336 10333 10329 10325 10322 10319 10316 10314 10312 10310 10308 10307 10306 10305 10305 10305 10305 10305 10306 10308 10309 10311 10314 10317 10321 10325 10328 10331 10335 10339 10342 10346 10350 10353 10358 10363 10369 10375
10485 10484 10482 10481 10480 10478 10477 10476 10474 10473 10471 10469 10467 10465 10462 10460 10457 10454 10451 10448 10444 10440 10436 10432 10427 10423 10418 10413 10409 10405 10400 10396 10391 10387 10383 10380 10376 10372 10369 10365 10362 10357 10353 10349 10344 10340 10336 10332 10328 10325 10321 10318 10315 10312 10309 10307 10306 10304 10302 10301 10301 10300 10300 10300 10300 10301 10302 10304 10305 10307 10309 10313 10316 10320 10323 10326 10329 10332 10335 10339 10344 10348 10353 10359 10365
10479 10477 10476 10475 10474 10473 10471 10470 10468 10467 10465 10463 10460 10458 10455 10453 10450 10447 10444 10441 10437 10433 10429 10424 10420 10415 10411 10406 10401 10397 10393 10388 10384 10380 10377 10374 10371 10367 10364 10360 10357 10353 10349 10344 10340 10336 10332 10328 10324 10321 10317 10315 10312 10309 10306 10303 10301 10300 10298 10297 10296 10296 10295 10295 10296 10296 10297 10298 10300 10302 10304 10306 10309 10311 10314 10317 10320 10322 10326 10330 10334 10339 10344 10349 10355
10473 10472 10471 10469 10468 10467 10465 10464 10462 10460 10458 10456 10453 10451 10448 10446 10443 10440 10437 10434 10430 10426 10422 10417 10412 10408 10403 10399 10395 10391 10386 10382 10377 10374 10371 10368 10365 10362 10359 10356 10352 10348 10344 10341 10337 10333 10329 10325 10321 10317 10314 10311 10308 10306 10303 10300 10297 10296 10295 10293 10292 10292 10291 10291 10291 10292 10292 10293 10295 10297 10299 10300 10302 10304 10306 10309 10311 10313 10316 10320 10325 10328 10333 10338 10344
10467 10466 10465 10464 10462 10461 10459 10458 10456 10453 10451 10449 10446 10444 10441 10438 10435 10432 10429 10426 10422 10418 10414 10409 10404 10400 10396 10392 10388 10384 10380 10376 10372 10369 10365 10362 10359 10357 10354 10351 10347 10344 10340 10337 10333 10330 10326 10322 10318 10314 10310 10307 10304 10302 10300 10297 10295 10292 10291 10290 10289 10288 10287 10286 10286 10287 10288 10289 10290 10291 10293 10294 10296 10298 10300 10301 10303 10305 10308 10311 10315 10318 10323 10328 10333
10462 10461 10459 10458 10456 10455 10453 10451 10449 10446 10444 10442 10439 10436 10433 10430 10428 10425 10421 10418 10414 10410 10406 10401 10397 10392 10388 10384 10381 10377 10374 10371 10367 10364 10361 10358 10355 10352 10349 10346 10343 10340 10336 10333 10329 10326 10323 10319 10315 10311 10307 10304 10301 10298 10295 10294 10292 10289 10288 10286 10285 10285 10284 10283 10282 10282 10283 10284 10285 10286 10287 10288 10290 10291 10293 10294 10296 10298 10301 10304 10306 10309 10313 10318 10322
10456 10455 10454 10452 10450 10449 10446 10444 10442 10440 10437 10435 10432 10429 10425 10422 10419 10416 10412 10409 10405 10402 10398 10393 10389 10385 10381 10377 10374 10371 10368 10365 10362 10359 10357 10354 10351 10348 10345 10342 10339 10336 10332 10329 10326 10323 10319 10316 10313 10309 10305 10302 10298 10295 10292 10290 10288 10286 10284 10283 10282 10281 10280 10280 10279 10279 10278 10279 10280 10281 10282 10283 10284 10285 10286 10288 10289 10291 10294 10296 10298 10300 10303 10306 10311
10451 10449 10448 10446 10444 10442 10440 10437 10435 10433 10431 10428 10425 10421 10418 10414 10410 10407 10403 10400 10396 10393 10389 10385 10382 10378 10374 10371 10368 10365 10362 10360 10357 10355 10352 10349 10347 10344 10341 10338 10335 10332 10329 10326 10323 10320 10316 10313 10310 10306 10303 10300 10296 10293 10290 10287 10285 10283 10282 10280 10278 10277 10276 10276 10276 10275 10275 10275 10275 10276 10277 10277 10278 10279 10280 10281 10282 10284 10285 10287 10289 10291 10293 10296 10300
10445 10443 10442 10440 10438 10436 10433 10431 10428 10426 10424 10421 10418 10414 10410 10406 10403 10399 10395 10392 10388 10385 10381 10378 10375 10371 10368 10365 10362 10360 10357 10354 10352 10349 10347 10345 10342 10340 10337 10334 10332 10329 10326 10323 10320 10317 10313 10310 10307 10303 10300 10297 10294 10291 10288 10285 10283 10281 10279 10277 10276 10274 10273 10272 10272 10271 10271 10271 10271 10271 10271 10272 10273 10273 10274 10275 10276 10277 10278 10279 10280 10282 10283 10285 10288
10438 10437 10436 10434 10432 10429 10427 10424 10422 10419 10416 10414 10410 10407 10403 10399 10395 10392 10388 10384 10381 10377 10374 10371 10368 10365 10362 10359 10357 10354 10351 10349 10347 10344 10342 10340 10338 10336 10333 10331 10328 10326 10323 10320 10317 10314 10311 10308 10304 10301 10298 10295 10291 10288 10285 10283 10280 10278 10276 10274 10273 10272 10270 10269 10268 10268 10267 10267 10266 10266 10266 10267 10267 10268 10268 10269 10270 10270 10271 10272 10273 10274 10275 10276 10278
10432 10431 10429 10428 10426 10423 10421 10418 10415 10412 10409 10406 10403 10399 10396 10392 10389 10385 10381 10378 10374 10371 10368 10365 10362 10360 10357 10355 10352 10349 10347 10344 10342 10340 10338 10336 10334 10332 10330 10328 10325 10323 10320 10317 10314 10311 10308 10305 10302 10299 10295 10292 10289 10286 10283 10280 10277 10275 10273 10271 10270 10268 10267 10266 10265 10264 10263 10263 10263 10262 10262 10261 10261 10262 10262 10263 10263 10264 10265 10265 10266 10266 10267 10268 10269
10426 10424 10423 10421 10419 10417 10414 10412 10409 10405 10402 10399 10396 10392 10389 10385 10382 10378 10374 10371 10368 10365 10362 10359 10357 10354 10352 10349 10347 10344 10342 10340 10338 10336 10334 10332 10330 10328 10326 10324 10322 10320 10317 10315 10312 10309 10306 10303 10300 10297 10293 10290 10287 10284 10281 10278 10275 10273 10270 10268 10266 10265 10264 10262 10261 10261 10260 10259 10258 10258 10257 10257 10257 10256 10256 10256 10256 10257 10257 10258 10259 10259 10260 10260 10261
10420 10418 10416 10414 10413 10410 10408 10405 10402 10398 10395 10392 10389 10385 10382 10378 10375 10371 10368 10365 10362 10359 10357 10354 10352 10349 10347 10344 10342 10340 10338 10336 10334 10332 10331 10329 10327 10325 10323 10321 10319 10317 10314 10312 10309 10306 10303 10301 10298 10295 10291 10288 10285 10281 10278 10276 10273 10270 10268 10266 10264 10262 10260 10259 10257 10257 10256 10255 10254 10254 10253 10253 10252 10252 10251 10251 10250 10250 10250 10250 10251 10251 10252 10252 10253
10414 10412 10409 10407 10406 10403 10401 10398 10394 10391 10388 10385 10382 10379 10375 10372 10368 10365 10362 10359 10356 10354 10351 10349 10347 10344 10342 10339 10338 10336 10334 10332 10330 10329 10327 10325 10323 10321 10319 10317 10315 10313 10311 10309 10306 10304 10301 10298 10295 10292 10289 10286 10283 10279 10276 10273 10271 10268 10265 10263 10261 10259 10257 10255 10254 10252 10251 10250 10250 10249 10248 10248 10247 10247 10246 10246 10245 10244 10244 10244 10244 10244 10244 10244 10245
10407 10405 10403 10401 10399 10396 10393 10390 10387 10384 10381 10378 10374 10371 10369 10366 10362 10359 10356 10353 10351 10348 10346 10344 10341 10339 10337 10335 10333 10332 10330 10328 10327 10325 10323 10321 10319 10317 10315 10314 10312 10310 10308 10305 10303 10300 10298 10295 10292 10289 10286 10283 10280 10277 10274 10271 10268 10266 10263 10261 10258 10256 10254 10253 10251 10249 10247 10246 10245 10244 10243 10243 10242 10242 10241 10240 10240 10239 10238 10238 10237 10237 10236 10236 10236
10401 10399 10396 10394 10391 10389 10386 10383 10381 10378 10375 10371 10368 10365 10362 10359 10357 10354 10351 10348 10345 10343 10341 10338 10336 10335 10333 10331 10329 10328 10326 10325 10323 10321 10319 10317 10315 10313 10311 10309 10307 10306 10303 10301 10299 10296 10294 10292 10289 10286 10283 10280 10277 10275 10272 10269 10266 10263 10260 10258 10256 10254 10252 10250 10248 10246 10244 10243 10241 10240 10239 10238 10237 10236 10235 10235 10234 10233 10233 10232 10231 10230 10230 10229 10229
10394 10392 10389 10387 10384 10381 10379 10376 10374 10371 10368 10365 10362 10358 10355 10353 10351 10348 10346 10343 10340 10338 10335 10333 10332 10330 10328 10327 10325 10324 10322 10321 10319 10317 10315 10314 10312 10310 10307 10305 10303 10301 10299 10297 10295 10292 10290 10288 10285 10283 10280 10277 10274 10271 10269 10266 10263 10260 10258 10255 10253 10251 10249 10247 10245 10243 10241 10240 10238 10236 10235 10233 10232 10231 10230 10229 10228 10228 10227 10226 10225 10224 10223 10222 10222
10387 10385 10382 10380 10377 10374 10372 10369 10366 10364 10361 10359 10356 10353 10350 10347 10345 10343 10340 10338 10336 10333 10331 10329 10328 10326 10324 10323 10321 10320 10318 10317 10315 10313 10311 10310 10308 10306 10304 10302 10300 10297 10295 10293 10291 10288 10286 10284 10281 10279 10276 10274 10271 10268 10265 10262 10260 10257 10254 10252 10250 10247 10245 10243 10242 10240 10238 10236 10235 10233 10231 10230 10228 10227 10225 10224 10223 10222 10221 10220 10219 10218 10217 10216 10215
10380 10377 10375 10373 10371 10368 10365 10362 10359 10357 10354 10352 10350 10348 10345 10343 10340 10337 10335 10333 10331 10329 10327 10326 10324 10323 10321 10319 10318 10316 10314 10313 10311 10309 10307 10305 10303 10302 10300 10298 10296 10294 10292 10289 10287 10284 10282 10279 10277 10275 10272 10270 10267 10265 10262 10259 10256 10253 10250 10248 10246 10244 10242 10240 10238 10236 10234 10233 10231 10229 10228 10226 10224 10223 10221 10219 10218 10217 10215 10214 10213 10212 10211 10210 10209
10372 10370 10368 10366 10364 10361 10359 10356 10353 10350 10348 10346 10344 10342 10340 10338 10335 10333 10330 10328 10327 10325 10323 10322 10320 10319 10318 10316 10314 10313 10311 10309 10307 10305 10303 10301 10299 10297 10295 10293 10291 10289 10287 10285 10283 10280 10277 10275 10273 10270 10268 10266 10263 10260 10258 10256 10253 10250 10247 10244 10242 10239 10237 10236 10234 10232 10230 10228 10227 10225 10224 10222 10220 10218 10217 10215 10213 10212 10210 10208 10207 10206 10204 10203 10202
10365 10363 10361 10359 10357 10355 10352 10350 10347 10345 10342 10340 10338 10336 10334 10332 10330 10328 10326 10324 10322 10321 10319 10318 10316 10315 10314 10312 10310 10309 10307 10306 10304 10302 10300 10298 10296 10294 10291 10289 10287 10284 10282 10280 10278 10276 10273 10270 10268 10266 10263 10261 10259 10256 10253 10251 10248 10246 10244 10241 10238 10235 10233 10231 10229 10227 10226 10224 10222 10221 10219 10217 10216 10214 10212 10210 10208 10207 10205 10203 10201 10200 10198 10197 10195
10358 10356 10354 10352 10350 10348 10346 10344 10341 10339 10337 10335 10333 10331 10329 10327 10325 10323 10321 10320 10318 10317 10315 10314 10312 10311 10309 10308 10306 10304 10303 10301 10300 10298 10296 10294 10292 10290 10288 10285 10283 10280 10278 10276 10273 10271 10269 10266 10263 10261 10258 10256 10253 10251 10249 10246 10243 10241 10239 10236 10234 10232 10229 10226 10224 10222 10221 10219 10217 10216 10214 10212 10211 10209 10207 10205 10203 10201 10199 10198 10196 10194 10192 10190 10189